﻿測定場所 (Monitoring sites),日付 (Measurement date),時間 (Measurement time),線量率 最大値 (max) μGy/h,線量率 最小値 (min) μGy/h,線量率 平均値 (average) μGy/h,
足立 (Adachi),2015-11-15,23:01～24:00,0.0349,0.0321,0.0336,
足立 (Adachi),2015-11-15,22:01～23:00,0.0356,0.0328,0.0342,
足立 (Adachi),2015-11-15,21:01～22:00,0.0352,0.0319,0.0338,
足立 (Adachi),2015-11-15,20:01～21:00,0.0363,0.0320,0.0338,
足立 (Adachi),2015-11-15,19:01～20:00,0.0360,0.0322,0.0340,
足立 (Adachi),2015-11-15,18:01～19:00,0.0360,0.0320,0.0337,
足立 (Adachi),2015-11-15,17:01～18:00,0.0357,0.0316,0.0335,
足立 (Adachi),2015-11-15,16:01～17:00,0.0359,0.0310,0.0333,
足立 (Adachi),2015-11-15,15:01～16:00,0.0353,0.0322,0.0335,
足立 (Adachi),2015-11-15,14:01～15:00,0.0357,0.0318,0.0338,
足立 (Adachi),2015-11-15,13:01～14:00,0.0363,0.0310,0.0338,
足立 (Adachi),2015-11-15,12:01～13:00,0.0364,0.0324,0.0339,
足立 (Adachi),2015-11-15,11:01～12:00,0.0364,0.0328,0.0344,
足立 (Adachi),2015-11-15,10:01～11:00,0.0377,0.0332,0.0355,
足立 (Adachi),2015-11-15,09:01～10:00,0.0400,0.0351,0.0371,
足立 (Adachi),2015-11-15,08:01～09:00,0.0416,0.0357,0.0381,
足立 (Adachi),2015-11-15,07:01～08:00,0.0426,0.0358,0.0392,
足立 (Adachi),2015-11-15,06:01～07:00,0.0398,0.0337,0.0362,
足立 (Adachi),2015-11-15,05:01～06:00,0.0423,0.0357,0.0382,
足立 (Adachi),2015-11-15,04:01～05:00,0.0411,0.0350,0.0376,
足立 (Adachi),2015-11-15,03:01～04:00,0.0384,0.0327,0.0360,
足立 (Adachi),2015-11-15,02:01～03:00,0.0380,0.0336,0.0356,
足立 (Adachi),2015-11-15,01:01～02:00,0.0378,0.0339,0.0357,
足立 (Adachi),2015-11-15,00:01～01:00,0.0398,0.0350,0.0366,
足立 (Adachi),2015-11-14,23:01～24:00,0.0384,0.0334,0.0361,
足立 (Adachi),2015-11-14,22:01～23:00,0.0414,0.0343,0.0380,
足立 (Adachi),2015-11-14,21:01～22:00,0.0445,0.0368,0.0410,
足立 (Adachi),2015-11-14,20:01～21:00,0.0459,0.0396,0.0429,
足立 (Adachi),2015-11-14,19:01～20:00,0.0455,0.0376,0.0416,
足立 (Adachi),2015-11-14,18:01～19:00,0.0439,0.0372,0.0410,
足立 (Adachi),2015-11-14,17:01～18:00,0.0428,0.0357,0.0385,
足立 (Adachi),2015-11-14,16:01～17:00,0.0370,0.0324,0.0349,
足立 (Adachi),2015-11-14,15:01～16:00,0.0372,0.0329,0.0349,
足立 (Adachi),2015-11-14,14:01～15:00,0.0374,0.0338,0.0357,
足立 (Adachi),2015-11-14,13:01～14:00,0.0380,0.0343,0.0361,
足立 (Adachi),2015-11-14,12:01～13:00,0.0392,0.0334,0.0363,
足立 (Adachi),2015-11-14,11:01～12:00,0.0391,0.0336,0.0363,
足立 (Adachi),2015-11-14,10:01～11:00,0.0395,0.0338,0.0366,
足立 (Adachi),2015-11-14,09:01～10:00,0.0385,0.0336,0.0358,
足立 (Adachi),2015-11-14,08:01～09:00,0.0368,0.0326,0.0346,
足立 (Adachi),2015-11-14,07:01～08:00,0.0367,0.0327,0.0347,
足立 (Adachi),2015-11-14,06:01～07:00,0.0367,0.0320,0.0345,
足立 (Adachi),2015-11-14,05:01～06:00,0.0367,0.0324,0.0346,
足立 (Adachi),2015-11-14,04:01～05:00,0.0371,0.0325,0.0345,
足立 (Adachi),2015-11-14,03:01～04:00,0.0369,0.0327,0.0344,
足立 (Adachi),2015-11-14,02:01～03:00,0.0371,0.0325,0.0345,
足立 (Adachi),2015-11-14,01:01～02:00,0.0368,0.0330,0.0347,
足立 (Adachi),2015-11-14,00:01～01:00,0.0384,0.0332,0.0355,
足立 (Adachi),2015-11-13,23:01～24:00,0.0377,0.0335,0.0354,
足立 (Adachi),2015-11-13,22:01～23:00,0.0369,0.0328,0.0353,
足立 (Adachi),2015-11-13,21:01～22:00,0.0366,0.0331,0.0343,
足立 (Adachi),2015-11-13,20:01～21:00,0.0363,0.0325,0.0347,
足立 (Adachi),2015-11-13,19:01～20:00,0.0364,0.0334,0.0347,
足立 (Adachi),2015-11-13,18:01～19:00,0.0356,0.0321,0.0341,
足立 (Adachi),2015-11-13,17:01～18:00,0.0362,0.0317,0.0340,
足立 (Adachi),2015-11-13,16:01～17:00,0.0361,0.0316,0.0338,
足立 (Adachi),2015-11-13,15:01～16:00,0.0359,0.0315,0.0338,
足立 (Adachi),2015-11-13,14:01～15:00,0.0367,0.0318,0.0338,
足立 (Adachi),2015-11-13,13:01～14:00,0.0358,0.0316,0.0341,
足立 (Adachi),2015-11-13,12:01～13:00,0.0369,0.0326,0.0344,
足立 (Adachi),2015-11-13,11:01～12:00,0.0368,0.0325,0.0345,
足立 (Adachi),2015-11-13,10:01～11:00,0.0367,0.0326,0.0347,
足立 (Adachi),2015-11-13,09:01～10:00,0.0365,0.0322,0.0344,
足立 (Adachi),2015-11-13,08:01～09:00,0.0366,0.0326,0.0347,
足立 (Adachi),2015-11-13,07:01～08:00,0.0366,0.0324,0.0344,
足立 (Adachi),2015-11-13,06:01～07:00,0.0361,0.0322,0.0347,
足立 (Adachi),2015-11-13,05:01～06:00,0.0372,0.0333,0.0349,
足立 (Adachi),2015-11-13,04:01～05:00,0.0361,0.0321,0.0347,
足立 (Adachi),2015-11-13,03:01～04:00,0.0369,0.0326,0.0347,
足立 (Adachi),2015-11-13,02:01～03:00,0.0378,0.0330,0.0349,
足立 (Adachi),2015-11-13,01:01～02:00,0.0373,0.0326,0.0348,
足立 (Adachi),2015-11-13,00:01～01:00,0.0372,0.0327,0.0348,
足立 (Adachi),2015-11-12,23:01～24:00,0.0364,0.0326,0.0344,
足立 (Adachi),2015-11-12,22:01～23:00,0.0364,0.0323,0.0342,
足立 (Adachi),2015-11-12,21:01～22:00,0.0363,0.0318,0.0342,
足立 (Adachi),2015-11-12,20:01～21:00,0.0364,0.0321,0.0343,
足立 (Adachi),2015-11-12,19:01～20:00,0.0364,0.0333,0.0345,
足立 (Adachi),2015-11-12,18:01～19:00,0.0358,0.0325,0.0342,
足立 (Adachi),2015-11-12,17:01～18:00,0.0362,0.0322,0.0340,
足立 (Adachi),2015-11-12,16:01～17:00,0.0360,0.0321,0.0342,
足立 (Adachi),2015-11-12,15:01～16:00,0.0349,0.0316,0.0334,
足立 (Adachi),2015-11-12,14:01～15:00,0.0356,0.0314,0.0336,
足立 (Adachi),2015-11-12,13:01～14:00,0.0358,0.0322,0.0338,
足立 (Adachi),2015-11-12,12:01～13:00,0.0358,0.0322,0.0340,
足立 (Adachi),2015-11-12,11:01～12:00,0.0359,0.0320,0.0340,
足立 (Adachi),2015-11-12,10:01～11:00,0.0356,0.0322,0.0337,
足立 (Adachi),2015-11-12,09:01～10:00,0.0354,0.0317,0.0333,
足立 (Adachi),2015-11-12,08:01～09:00,0.0357,0.0323,0.0339,
足立 (Adachi),2015-11-12,07:01～08:00,0.0361,0.0314,0.0338,
足立 (Adachi),2015-11-12,06:01～07:00,0.0359,0.0315,0.0342,
足立 (Adachi),2015-11-12,05:01～06:00,0.0352,0.0304,0.0327,
足立 (Adachi),2015-11-12,04:01～05:00,0.0360,0.0305,0.0333,
足立 (Adachi),2015-11-12,03:01～04:00,0.0360,0.0324,0.0342,
足立 (Adachi),2015-11-12,02:01～03:00,0.0363,0.0316,0.0339,
足立 (Adachi),2015-11-12,01:01～02:00,0.0365,0.0327,0.0344,
足立 (Adachi),2015-11-12,00:01～01:00,0.0366,0.0323,0.0341,
足立 (Adachi),2015-11-11,23:01～24:00,0.0366,0.0323,0.0339,
足立 (Adachi),2015-11-11,22:01～23:00,0.0361,0.0328,0.0342,
足立 (Adachi),2015-11-11,21:01～22:00,0.0363,0.0311,0.0342,
足立 (Adachi),2015-11-11,20:01～21:00,0.0365,0.0322,0.0342,
足立 (Adachi),2015-11-11,19:01～20:00,0.0365,0.0317,0.0341,
足立 (Adachi),2015-11-11,18:01～19:00,0.0360,0.0322,0.0338,
足立 (Adachi),2015-11-11,17:01～18:00,0.0362,0.0320,0.0338,
足立 (Adachi),2015-11-11,16:01～17:00,0.0357,0.0317,0.0338,
足立 (Adachi),2015-11-11,15:01～16:00,0.0361,0.0319,0.0338,
足立 (Adachi),2015-11-11,14:01～15:00,0.0359,0.0307,0.0336,
足立 (Adachi),2015-11-11,13:01～14:00,0.0357,0.0322,0.0339,
足立 (Adachi),2015-11-11,12:01～13:00,0.0360,0.0314,0.0340,
足立 (Adachi),2015-11-11,11:01～12:00,0.0366,0.0320,0.0342,
足立 (Adachi),2015-11-11,10:01～11:00,0.0359,0.0318,0.0337,
足立 (Adachi),2015-11-11,09:01～10:00,0.0347,0.0311,0.0332,
足立 (Adachi),2015-11-11,08:01～09:00,0.0356,0.0310,0.0335,
足立 (Adachi),2015-11-11,07:01～08:00,0.0358,0.0318,0.0336,
足立 (Adachi),2015-11-11,06:01～07:00,0.0359,0.0313,0.0334,
足立 (Adachi),2015-11-11,05:01～06:00,0.0358,0.0317,0.0337,
足立 (Adachi),2015-11-11,04:01～05:00,0.0352,0.0315,0.0335,
足立 (Adachi),2015-11-11,03:01～04:00,0.0359,0.0319,0.0338,
足立 (Adachi),2015-11-11,02:01～03:00,0.0362,0.0316,0.0341,
足立 (Adachi),2015-11-11,01:01～02:00,0.0360,0.0324,0.0339,
足立 (Adachi),2015-11-11,00:01～01:00,0.0365,0.0323,0.0342,
足立 (Adachi),2015-11-10,23:01～24:00,0.0359,0.0320,0.0343,
足立 (Adachi),2015-11-10,22:01～23:00,0.0370,0.0331,0.0348,
足立 (Adachi),2015-11-10,21:01～22:00,0.0363,0.0330,0.0345,
足立 (Adachi),2015-11-10,20:01～21:00,0.0368,0.0329,0.0348,
足立 (Adachi),2015-11-10,19:01～20:00,0.0399,0.0343,0.0361,
足立 (Adachi),2015-11-10,18:01～19:00,0.0431,0.0358,0.0386,
足立 (Adachi),2015-11-10,17:01～18:00,0.0484,0.0394,0.0438,
足立 (Adachi),2015-11-10,16:01～17:00,0.0516,0.0426,0.0469,
足立 (Adachi),2015-11-10,15:01～16:00,0.0550,0.0387,0.0497,
足立 (Adachi),2015-11-10,14:01～15:00,0.0416,0.0332,0.0363,
足立 (Adachi),2015-11-10,13:01～14:00,0.0468,0.0361,0.0415,
足立 (Adachi),2015-11-10,12:01～13:00,0.0495,0.0333,0.0398,
足立 (Adachi),2015-11-10,11:01～12:00,0.0373,0.0336,0.0354,
足立 (Adachi),2015-11-10,10:01～11:00,0.0425,0.0354,0.0383,
足立 (Adachi),2015-11-10,09:01～10:00,0.0551,0.0385,0.0467,
足立 (Adachi),2015-11-10,08:01～09:00,0.0538,0.0411,0.0451,
足立 (Adachi),2015-11-10,07:01～08:00,0.0505,0.0404,0.0452,
足立 (Adachi),2015-11-10,06:01～07:00,0.0524,0.0414,0.0484,
足立 (Adachi),2015-11-10,05:01～06:00,0.0505,0.0406,0.0451,
足立 (Adachi),2015-11-10,04:01～05:00,0.0477,0.0365,0.0433,
足立 (Adachi),2015-11-10,03:01～04:00,0.0375,0.0335,0.0358,
足立 (Adachi),2015-11-10,02:01～03:00,0.0380,0.0337,0.0356,
足立 (Adachi),2015-11-10,01:01～02:00,0.0382,0.0341,0.0359,
足立 (Adachi),2015-11-10,00:01～01:00,0.0400,0.0343,0.0365,
足立 (Adachi),2015-11-09,23:01～24:00,0.0411,0.0348,0.0369,
足立 (Adachi),2015-11-09,22:01～23:00,0.0396,0.0333,0.0360,
足立 (Adachi),2015-11-09,21:01～22:00,0.0373,0.0329,0.0349,
足立 (Adachi),2015-11-09,20:01～21:00,0.0372,0.0327,0.0349,
足立 (Adachi),2015-11-09,19:01～20:00,0.0371,0.0332,0.0353,
足立 (Adachi),2015-11-09,18:01～19:00,0.0399,0.0348,0.0367,
足立 (Adachi),2015-11-09,17:01～18:00,0.0408,0.0346,0.0372,
足立 (Adachi),2015-11-09,16:01～17:00,0.0382,0.0330,0.0350,
足立 (Adachi),2015-11-09,15:01～16:00,0.0358,0.0322,0.0339,
足立 (Adachi),2015-11-09,14:01～15:00,0.0372,0.0326,0.0344,
足立 (Adachi),2015-11-09,13:01～14:00,0.0365,0.0313,0.0338,
足立 (Adachi),2015-11-09,12:01～13:00,0.0357,0.0311,0.0334,
足立 (Adachi),2015-11-09,11:01～12:00,0.0363,0.0319,0.0345,
足立 (Adachi),2015-11-09,10:01～11:00,0.0367,0.0327,0.0345,
足立 (Adachi),2015-11-09,09:01～10:00,0.0368,0.0327,0.0348,
足立 (Adachi),2015-11-09,08:01～09:00,0.0363,0.0324,0.0345,
足立 (Adachi),2015-11-09,07:01～08:00,0.0367,0.0320,0.0343,
足立 (Adachi),2015-11-09,06:01～07:00,0.0369,0.0326,0.0348,
足立 (Adachi),2015-11-09,05:01～06:00,0.0366,0.0329,0.0348,
足立 (Adachi),2015-11-09,04:01～05:00,0.0412,0.0324,0.0346,
足立 (Adachi),2015-11-09,03:01～04:00,0.0375,0.0326,0.0347,
足立 (Adachi),2015-11-09,02:01～03:00,0.0371,0.0329,0.0356,
足立 (Adachi),2015-11-09,01:01～02:00,0.0385,0.0333,0.0356,
足立 (Adachi),2015-11-09,00:01～01:00,0.0406,0.0347,0.0366,
